Regional Weather Roundup
Issued by NWS Cleveland, OH

Home | Current Version | Previous Version | Graphics & Text | Print | Product List | Glossary On
Versions: 1 2 3 4 5 6 7 8 9 10 11 12 13 14 15 16 17 18 19 20 21 22 23 24 25 26 27 28 29 30 31 32 33 34 35 36 37 38 39 40 41 42 43 44 45 46 47 48 49 50
000
ASUS41 KCLE 261502
RWRCLE
OHIO REGIONAL WEATHER ROUNDUP
NATIONAL WEATHER SERVICE CLEVELAND, OH
1100 AM EDT WED APR 26 2017

NOTE: "FAIR" INDICATES FEW OR NO CLOUDS BELOW 12,000 FEET WITH NO
SIGNIFICANT WEATHER AND/OR OBSTRUCTIONS TO VISIBILITY.

OHZ001>008-015>018-024>027-034-035-043-044-261600-
   NORTHWEST OHIO

CITY           SKY/WX    TMP DP  RH WIND       PRES   REMARKS
DEFIANCE       PTSUNNY   71  56  58 S12G21    29.63F
FINDLAY        MOSUNNY   72  56  57 SE18G24   29.66F
TOLEDO EXPRESS MOSUNNY   71  57  61 S7G20     29.65F
TOLEDO EXEC    SUNNY     72  59  63 S17       29.68S
LIMA           PTSUNNY   72  58  61 S15       29.66F
$$

OHZ009>014-019>023-028>033-038-089-261600-
   NORTHEAST OHIO

CITY           SKY/WX    TMP DP  RH WIND       PRES   REMARKS
CLE-HOPKINS    MOSUNNY   71  55  56 S12       29.76S
CLE-LAKEFRONT  MOSUNNY   69  55  60 SE14      29.72F
CUY CO. ARPT   MOSUNNY   70  57  64 S12       29.75F
LORAIN-ELYRIA  SUNNY     66  55  67 S14       29.73F
ASHTABULA      SUNNY     65  55  70 S8        29.78F
AKRON-CANTON   MOSUNNY   67  55  65 S8        29.77F
WOOSTER        SUNNY     65  56  72 S7        29.76F
MANSFIELD      SUNNY     71  57  61 S14       29.75S
YOUNGSTOWN     MOSUNNY   65  54  67 SE7       29.78F
$$

OHZ042-051>053-060>062-070>072-077>081-261600-
  SOUTHWEST OHIO

CITY           SKY/WX    TMP DP  RH WIND       PRES   REMARKS
CINC-COVINGTON CLOUDY    71  59  65 S13       29.69F
CINC-LUNKEN    CLOUDY    71  61  70 S10       29.70F
HAMILTON       CLOUDY    74  60  61 VRB6      29.68F
DAYTON         CLOUDY    70  57  63 S14       29.68F
WRIGHT-PAT AFB CLOUDY    72  60  65 S10       29.69F
DAYTON GENERAL CLOUDY    71  58  63 S9        29.69F
WILMINGTON     SUNNY     71  61  70 S12       29.72F
$$

OHZ036-037-039>041-045>050-054>059-063>069-073>076-082>088-261600-
  CENTRAL AND SOUTHEAST OHIO

CITY           SKY/WX    TMP DP  RH WIND       PRES   REMARKS
COLUMBUS       PTSUNNY   70  58  65 S8        29.74S
OSU AIRPORT    MOSUNNY   69  58  67 S8        29.74R
BOLTON FIELD   SUNNY     70  59  68 S9        29.76R
RICKENBACK AFB SUNNY     71  59  67 SW13      29.75R
NEWARK         SUNNY     71  58  63 VRB5      29.75S
MARION         SUNNY     70  56  61 S15       29.73F
LANCASTER      SUNNY     74  59  59 SW8       29.76S
ZANESVILLE     SUNNY     69  57  65 S6        29.76F
NEW PHILLY     NOT AVBL
$$



USA.gov is the U.S. government's official web portal to all federal, state and local government web resources and services.